TimeCST,TemperatureF,Dew PointF,Humidity,Sea Level PressureIn,VisibilityMPH,Wind Direction,Wind SpeedMPH,Gust SpeedMPH,PrecipitationIn,Events,Conditions,WindDirDegrees,DateUTC
12:13 AM,10.4,5.0,79,30.18,10.0,Calm,Calm,-,N/A,,Overcast,0,2013-02-22 06:13:00
12:33 AM,10.4,6.8,85,30.17,10.0,Calm,Calm,-,N/A,,Overcast,0,2013-02-22 06:33:00
12:53 AM,10.4,6.8,85,30.16,10.0,Calm,Calm,-,N/A,,Overcast,0,2013-02-22 06:53:00
1:13 AM,12.2,6.8,79,30.16,10.0,Calm,Calm,-,N/A,,Overcast,0,2013-02-22 07:13:00
1:33 AM,10.4,6.8,85,30.15,10.0,Calm,Calm,-,N/A,,Overcast,0,2013-02-22 07:33:00
1:53 AM,10.4,6.8,85,30.15,10.0,Calm,Calm,-,N/A,,Overcast,0,2013-02-22 07:53:00
2:13 AM,10.4,8.6,92,30.14,10.0,Calm,Calm,-,N/A,,Overcast,0,2013-02-22 08:13:00
2:33 AM,12.2,8.6,85,30.13,10.0,Calm,Calm,-,N/A,,Overcast,0,2013-02-22 08:33:00
2:53 AM,12.2,8.6,85,30.12,10.0,Calm,Calm,-,N/A,,Overcast,0,2013-02-22 08:53:00
3:33 AM,12.2,8.6,85,30.10,10.0,Calm,Calm,-,N/A,,Overcast,0,2013-02-22 09:33:00
3:53 AM,12.2,8.6,85,30.09,10.0,Calm,Calm,-,N/A,,Overcast,0,2013-02-22 09:53:00
4:13 AM,12.2,6.8,79,30.08,10.0,Calm,Calm,-,N/A,,Overcast,0,2013-02-22 10:13:00
4:33 AM,12.2,6.8,79,30.07,10.0,Calm,Calm,-,N/A,,Overcast,0,2013-02-22 10:33:00
4:53 AM,12.2,8.6,85,30.06,10.0,Calm,Calm,-,N/A,,Overcast,0,2013-02-22 10:53:00
5:13 AM,12.2,8.6,85,30.06,10.0,NE,3.5,-,N/A,,Overcast,50,2013-02-22 11:13:00
5:33 AM,12.2,8.6,85,30.05,10.0,Calm,Calm,-,N/A,,Overcast,0,2013-02-22 11:33:00
5:54 AM,12.2,10.4,92,30.05,7.0,Calm,Calm,-,N/A,,Overcast,0,2013-02-22 11:54:00
6:14 AM,12.2,10.4,92,30.04,7.0,Calm,Calm,-,N/A,,Overcast,0,2013-02-22 12:14:00
6:33 AM,12.2,10.4,92,30.03,7.0,Calm,Calm,-,N/A,,Overcast,0,2013-02-22 12:33:00
6:53 AM,12.2,10.4,92,30.02,7.0,Calm,Calm,-,N/A,,Overcast,0,2013-02-22 12:53:00
7:13 AM,14.0,10.4,86,30.01,7.0,Calm,Calm,-,N/A,,Overcast,0,2013-02-22 13:13:00
7:33 AM,14.0,10.4,86,30.00,5.0,Calm,Calm,-,N/A,,Overcast,0,2013-02-22 13:33:00
7:53 AM,14.0,10.4,86,30.00,5.0,East,3.5,-,N/A,,Overcast,90,2013-02-22 13:53:00
8:13 AM,15.8,12.2,86,29.99,5.0,Calm,Calm,-,N/A,,Overcast,0,2013-02-22 14:13:00
8:33 AM,15.8,12.2,86,29.98,10.0,East,3.5,-,N/A,,Overcast,80,2013-02-22 14:33:00
8:53 AM,17.6,14.0,86,29.98,10.0,East,3.5,-,N/A,,Overcast,80,2013-02-22 14:53:00
9:13 AM,17.6,15.8,93,29.97,10.0,East,3.5,-,N/A,,Mostly Cloudy,100,2013-02-22 15:13:00
9:34 AM,19.4,15.8,86,29.97,10.0,East,5.8,-,N/A,,Mostly Cloudy,90,2013-02-22 15:34:00
9:53 AM,19.4,17.6,93,29.97,10.0,East,6.9,-,N/A,,Scattered Clouds,100,2013-02-22 15:53:00
10:34 AM,21.2,19.4,93,29.96,10.0,East,8.1,-,N/A,,Scattered Clouds,100,2013-02-22 16:34:00
10:53 AM,21.2,19.4,93,29.96,3.0,ESE,3.5,-,N/A,,Clear,110,2013-02-22 16:53:00
11:13 AM,23.0,19.4,86,29.95,1.2,Calm,Calm,-,N/A,Snow,Heavy Snow,0,2013-02-22 17:13:00
11:33 AM,24.8,19.4,80,29.95,0.8,Calm,Calm,-,N/A,Snow,Heavy Snow,0,2013-02-22 17:33:00
11:53 AM,24.8,19.4,80,29.94,1.0,Calm,Calm,-,N/A,Snow,Light Snow,0,2013-02-22 17:53:00
12:14 PM,24.8,19.4,80,29.94,1.2,Calm,Calm,-,0.01,Snow,Light Snow,0,2013-02-22 18:14:00
12:33 PM,24.8,21.2,86,29.93,2.0,Calm,Calm,-,0.01,Snow,Light Snow,0,2013-02-22 18:33:00
12:53 PM,24.8,21.2,86,29.92,1.0,Calm,Calm,-,0.02,Snow,Light Snow,30,2013-02-22 18:53:00
1:13 PM,26.6,21.2,80,29.92,1.2,Calm,Calm,-,N/A,Snow,Light Snow,0,2013-02-22 19:13:00
1:33 PM,26.6,21.2,80,29.91,2.0,Calm,Calm,-,0.01,Snow,Light Snow,0,2013-02-22 19:33:00
1:53 PM,26.6,21.2,80,29.90,1.5,NE,4.6,-,0.01,Snow,Snow,40,2013-02-22 19:53:00
2:13 PM,26.6,21.2,80,29.90,2.5,Calm,Calm,-,N/A,,Overcast,0,2013-02-22 20:13:00
2:33 PM,26.6,21.2,80,29.89,4.0,Calm,Calm,-,0.01,Snow,Light Snow,0,2013-02-22 20:33:00
2:53 PM,26.6,21.2,80,29.89,7.0,ENE,3.5,-,0.01,Snow,Light Snow,70,2013-02-22 20:53:00
3:13 PM,26.6,21.2,80,29.88,10.0,Calm,Calm,-,N/A,,Overcast,0,2013-02-22 21:13:00
3:34 PM,26.6,21.2,80,29.88,10.0,ENE,4.6,-,N/A,,Overcast,60,2013-02-22 21:34:00
3:53 PM,26.6,21.2,80,29.87,10.0,Calm,Calm,-,N/A,,Overcast,0,2013-02-22 21:53:00
4:13 PM,26.6,21.2,80,29.87,10.0,NE,3.5,-,N/A,,Overcast,40,2013-02-22 22:13:00
4:33 PM,26.6,21.2,80,29.87,10.0,Calm,Calm,-,N/A,,Overcast,0,2013-02-22 22:33:00
4:53 PM,26.6,21.2,80,29.86,10.0,Calm,Calm,-,N/A,,Overcast,0,2013-02-22 22:53:00
5:13 PM,26.6,21.2,80,29.86,10.0,Calm,Calm,-,N/A,,Overcast,0,2013-02-22 23:13:00
5:34 PM,26.6,21.2,80,29.86,10.0,Calm,Calm,-,N/A,,Overcast,0,2013-02-22 23:34:00
5:53 PM,26.6,21.2,80,29.86,10.0,Calm,Calm,-,N/A,,Overcast,0,2013-02-22 23:53:00
6:13 PM,26.6,21.2,80,29.87,10.0,Calm,Calm,-,N/A,,Overcast,0,2013-02-23 00:13:00
6:34 PM,26.6,21.2,80,29.86,10.0,Calm,Calm,-,N/A,,Overcast,0,2013-02-23 00:34:00
6:53 PM,26.6,21.2,80,29.86,10.0,Calm,Calm,-,N/A,,Overcast,0,2013-02-23 00:53:00
7:13 PM,26.6,19.4,74,29.86,10.0,Calm,Calm,-,N/A,,Overcast,0,2013-02-23 01:13:00
7:34 PM,26.6,19.4,74,29.86,10.0,Calm,Calm,-,N/A,,Overcast,0,2013-02-23 01:34:00
7:53 PM,26.6,19.4,74,29.86,10.0,Calm,Calm,-,N/A,,Overcast,0,2013-02-23 01:53:00
8:13 PM,24.8,19.4,80,29.85,10.0,Calm,Calm,-,N/A,,Overcast,0,2013-02-23 02:13:00
8:33 PM,24.8,19.4,80,29.85,10.0,Calm,Calm,-,N/A,,Overcast,0,2013-02-23 02:33:00
8:53 PM,24.8,19.4,80,29.85,10.0,ENE,3.5,-,N/A,,Overcast,60,2013-02-23 02:53:00
9:13 PM,24.8,19.4,80,29.85,10.0,Calm,Calm,-,N/A,,Overcast,0,2013-02-23 03:13:00
9:34 PM,24.8,19.4,80,29.85,10.0,Calm,Calm,-,N/A,,Overcast,0,2013-02-23 03:34:00
9:53 PM,23.0,19.4,86,29.84,10.0,Calm,Calm,-,N/A,,Overcast,0,2013-02-23 03:53:00
10:13 PM,23.0,19.4,86,29.84,10.0,Calm,Calm,-,N/A,,Overcast,0,2013-02-23 04:13:00
10:33 PM,21.2,17.6,86,29.84,10.0,Calm,Calm,-,N/A,,Overcast,0,2013-02-23 04:33:00
10:53 PM,21.2,17.6,86,29.84,10.0,Calm,Calm,-,N/A,,Overcast,0,2013-02-23 04:53:00
11:13 PM,19.4,17.6,93,29.83,10.0,Calm,Calm,-,N/A,Snow,Light Snow,0,2013-02-23 05:13:00
11:33 PM,19.4,17.6,93,29.83,10.0,Calm,Calm,-,N/A,,Overcast,0,2013-02-23 05:33:00
11:53 PM,19.4,17.6,93,29.83,10.0,Calm,Calm,-,N/A,,Overcast,0,2013-02-23 05:53:00